Time,TemperatureF,DewpointF,PressureIn,WindDirection,WindDirectionDegrees,WindSpeedMPH,WindSpeedGustMPH,Humidity,HourlyPrecipIn,Conditions,Clouds,dailyrainin,SolarRadiationWatts/m^2,SoftwareType,DateUTC
2013-04-04 00:00:00,53.9,51.9,29.92,North,355,0.0,0.0,93,0.00,,---,0.00,0.00,VWS V14.01,2013-04-04 07:00:00,
2013-04-04 00:05:00,53.9,51.9,29.92,North,355,0.0,0.0,93,0.00,,---,0.00,0.00,VWS V14.01,2013-04-04 07:05:00,
2013-04-04 00:10:00,53.8,51.8,29.92,North,355,0.0,2.0,93,0.00,,---,0.00,0.00,VWS V14.01,2013-04-04 07:10:00,
2013-04-04 00:15:00,53.8,51.8,29.92,North,355,0.0,2.0,93,0.00,,---,0.00,0.00,VWS V14.01,2013-04-04 07:15:00,
2013-04-04 00:20:00,53.7,51.7,29.92,North,355,0.0,1.0,93,0.00,,---,0.00,0.00,VWS V14.01,2013-04-04 07:20:00,
2013-04-04 00:25:00,53.7,52.0,29.92,ESE,117,0.0,4.0,94,0.00,,---,0.00,0.00,VWS V14.01,2013-04-04 07:25:00,
2013-04-04 00:30:00,53.8,52.1,29.91,NNW,332,1.0,7.0,94,0.00,,---,0.00,0.00,VWS V14.01,2013-04-04 07:30:00,
2013-04-04 00:35:00,53.8,52.1,29.90,SSE,155,0.0,7.0,94,0.00,,---,0.00,0.00,VWS V14.01,2013-04-04 07:35:00,
2013-04-04 00:40:00,53.9,52.2,29.90,SSE,155,0.0,5.0,94,0.00,,---,0.00,0.00,VWS V14.01,2013-04-04 07:40:00,
2013-04-04 00:45:00,53.9,52.2,29.90,East,90,1.0,5.0,94,0.00,,---,0.00,0.00,VWS V14.01,2013-04-04 07:45:00,
2013-04-04 00:50:00,53.8,52.1,29.89,NNW,340,4.0,7.0,94,0.00,,---,0.00,0.00,VWS V14.01,2013-04-04 07:50:00,
2013-04-04 00:55:00,53.8,52.1,29.90,South,190,2.0,7.0,94,0.00,,---,0.00,0.00,VWS V14.01,2013-04-04 07:55:00,
2013-04-04 01:00:00,53.9,52.2,29.89,NW,308,4.0,4.0,94,0.00,,---,0.00,0.00,VWS V14.01,2013-04-04 08:00:00,
2013-04-04 01:05:00,53.9,52.2,29.89,North,360,0.0,5.0,94,0.00,,---,0.00,0.00,VWS V14.01,2013-04-04 08:05:00,
2013-04-04 01:10:00,53.9,52.2,29.89,North,360,0.0,0.0,94,0.00,,---,0.00,0.00,VWS V14.01,2013-04-04 08:10:00,
2013-04-04 01:15:00,53.9,52.2,29.88,North,360,2.0,3.0,94,0.00,,---,0.00,0.00,VWS V14.01,2013-04-04 08:15:00,
2013-04-04 01:20:00,53.9,52.2,29.89,North,360,0.0,0.0,94,0.00,,---,0.00,0.00,VWS V14.01,2013-04-04 08:20:00,
2013-04-04 01:25:00,53.9,52.2,29.89,North,360,1.0,1.0,94,0.00,,---,0.00,0.00,VWS V14.01,2013-04-04 08:25:00,
2013-04-04 01:30:00,53.9,52.2,29.89,North,360,0.0,1.0,94,0.00,,---,0.00,0.00,VWS V14.01,2013-04-04 08:30:00,
2013-04-04 01:35:00,53.9,52.2,29.89,ENE,70,2.0,3.0,94,0.00,,---,0.00,0.00,VWS V14.01,2013-04-04 08:35:00,
2013-04-04 01:40:00,54.0,52.3,29.89,ENE,71,0.0,3.0,94,0.00,,---,0.00,0.00,VWS V14.01,2013-04-04 08:40:00,
2013-04-04 01:45:00,54.1,52.4,29.89,ENE,71,0.0,3.0,94,0.00,,---,0.00,0.00,VWS V14.01,2013-04-04 08:45:00,
2013-04-04 01:50:00,54.1,52.4,29.89,ENE,71,0.0,1.0,94,0.00,,---,0.00,0.00,VWS V14.01,2013-04-04 08:50:00,
2013-04-04 01:55:00,54.1,52.4,29.89,ENE,71,2.0,3.0,94,0.00,,---,0.00,0.00,VWS V14.01,2013-04-04 08:55:00,
2013-04-04 02:00:00,54.0,52.3,29.89,ENE,71,0.0,0.0,94,0.00,,---,0.00,0.00,VWS V14.01,2013-04-04 09:00:00,
2013-04-04 02:05:00,54.0,52.3,29.86,ENE,71,0.0,1.0,94,0.00,,---,0.00,0.00,VWS V14.01,2013-04-04 09:05:00,
2013-04-04 02:10:00,53.9,52.2,29.85,NE,45,2.0,4.0,94,0.00,,---,0.00,0.00,VWS V14.01,2013-04-04 09:10:00,
2013-04-04 02:15:00,53.9,52.2,29.85,NE,44,4.0,4.0,94,0.00,,---,0.00,0.00,VWS V14.01,2013-04-04 09:15:00,
2013-04-04 02:20:00,54.1,52.7,29.84,North,355,5.0,9.0,95,0.00,,---,0.00,0.00,VWS V14.01,2013-04-04 09:20:00,
2013-04-04 02:25:00,54.4,52.7,29.82,North,10,6.0,9.0,94,0.00,,---,0.00,0.00,VWS V14.01,2013-04-04 09:25:00,
2013-04-04 02:30:00,54.4,52.7,29.82,NNW,343,6.0,9.0,94,0.00,,---,0.00,0.00,VWS V14.01,2013-04-04 09:30:00,
2013-04-04 02:35:00,54.4,52.7,29.82,North,350,6.0,9.0,94,0.00,,---,0.00,0.00,VWS V14.01,2013-04-04 09:35:00,
2013-04-04 02:40:00,54.4,52.7,29.83,North,355,6.0,9.0,94,0.00,,---,0.00,0.00,VWS V14.01,2013-04-04 09:40:00,
2013-04-04 02:45:00,54.5,52.5,29.82,North,355,5.0,11.0,93,0.00,,---,0.00,0.00,VWS V14.01,2013-04-04 09:45:00,
2013-04-04 02:50:00,54.6,52.6,29.82,North,355,4.0,7.0,93,0.00,,---,0.00,0.00,VWS V14.01,2013-04-04 09:50:00,
2013-04-04 02:55:00,54.5,52.5,29.82,North,5,1.0,7.0,93,0.00,,---,0.00,0.00,VWS V14.01,2013-04-04 09:55:00,
2013-04-04 03:00:00,54.5,52.5,29.83,North,5,0.0,0.0,93,0.00,,---,0.00,0.00,VWS V14.01,2013-04-04 10:00:00,
2013-04-04 03:05:00,54.5,52.8,29.84,North,5,0.0,1.0,94,0.00,,---,0.00,0.00,VWS V14.01,2013-04-04 10:05:00,
2013-04-04 03:10:00,54.5,52.8,29.83,North,5,0.0,0.0,94,0.00,,---,0.00,0.00,VWS V14.01,2013-04-04 10:10:00,
2013-04-04 03:15:00,54.4,52.7,29.82,North,5,2.0,2.0,94,0.00,,---,0.00,0.00,VWS V14.01,2013-04-04 10:15:00,
2013-04-04 03:20:00,54.4,52.7,29.83,North,5,3.0,3.0,94,0.00,,---,0.00,0.00,VWS V14.01,2013-04-04 10:20:00,
2013-04-04 03:25:00,54.3,52.6,29.84,SW,234,2.0,5.0,94,0.00,,---,0.00,0.00,VWS V14.01,2013-04-04 10:25:00,
2013-04-04 03:30:00,54.4,52.7,29.85,SW,214,2.0,4.0,94,0.00,,---,0.00,0.00,VWS V14.01,2013-04-04 10:30:00,
2013-04-04 03:35:00,54.4,52.7,29.84,SW,214,0.0,4.0,94,0.00,,---,0.00,0.00,VWS V14.01,2013-04-04 10:35:00,
2013-04-04 03:40:00,54.5,52.5,29.85,West,265,2.0,5.0,93,0.00,,---,0.00,0.00,VWS V14.01,2013-04-04 10:40:00,
2013-04-04 03:46:00,54.7,52.7,29.83,West,262,0.0,5.0,93,0.00,,---,0.00,0.00,VWS V14.01,2013-04-04 10:46:00,
2013-04-04 03:50:00,54.7,52.7,29.83,West,262,2.0,5.0,93,0.00,,---,0.00,0.00,VWS V14.01,2013-04-04 10:50:00,
2013-04-04 03:51:00,54.7,52.7,29.82,NW,311,5.0,6.0,93,0.00,,---,0.00,0.00,VWS V14.01,2013-04-04 10:51:00,
2013-04-04 03:56:00,54.7,52.7,29.80,NNE,15,2.0,6.0,93,0.00,,---,0.00,0.00,VWS V14.01,2013-04-04 10:56:00,
2013-04-04 04:00:00,54.6,52.6,29.80,NNE,12,3.0,5.0,93,0.00,,---,0.00,0.00,VWS V14.01,2013-04-04 11:00:00,
2013-04-04 04:05:00,54.5,52.5,29.79,North,5,3.0,5.0,93,0.00,,---,0.00,0.00,VWS V14.01,2013-04-04 11:05:00,
2013-04-04 04:10:00,54.4,52.4,29.79,North,355,0.0,4.0,93,0.00,,---,0.00,0.00,VWS V14.01,2013-04-04 11:10:00,
2013-04-04 04:15:00,54.3,52.3,29.79,NW,320,2.0,5.0,93,0.00,,---,0.00,0.00,VWS V14.01,2013-04-04 11:15:00,
2013-04-04 04:20:00,54.4,52.1,29.80,SW,234,2.0,4.0,92,0.00,,---,0.00,0.00,VWS V14.01,2013-04-04 11:20:00,
2013-04-04 04:26:00,54.5,52.2,29.80,SW,214,2.0,4.0,92,0.00,,---,0.00,0.00,VWS V14.01,2013-04-04 11:26:00,
2013-04-04 04:30:00,54.6,52.3,29.80,WSW,247,6.0,7.0,92,0.00,,---,0.00,0.00,VWS V14.01,2013-04-04 11:30:00,
2013-04-04 04:35:00,54.4,52.1,29.81,WSW,257,5.0,12.0,92,0.00,,---,0.00,0.00,VWS V14.01,2013-04-04 11:35:00,
2013-04-04 04:40:00,54.2,52.2,29.80,West,264,5.0,9.0,93,0.00,,---,0.00,0.00,VWS V14.01,2013-04-04 11:40:00,
2013-04-04 04:45:00,54.2,52.2,29.80,West,259,5.0,9.0,93,0.00,,---,0.00,0.00,VWS V14.01,2013-04-04 11:45:00,
2013-04-04 04:50:00,54.2,52.2,29.81,SW,220,3.0,6.0,93,0.00,,---,0.00,0.00,VWS V14.01,2013-04-04 11:50:00,
2013-04-04 04:55:00,54.1,52.1,29.81,West,266,2.0,7.0,93,0.00,,---,0.00,0.00,VWS V14.01,2013-04-04 11:55:00,
2013-04-04 05:00:00,54.0,52.0,29.79,WNW,299,10.0,10.0,93,0.00,,---,0.00,0.00,VWS V14.01,2013-04-04 12:00:00,
2013-04-04 05:05:00,54.0,52.0,29.79,West,267,3.0,10.0,93,0.00,,---,0.00,0.00,VWS V14.01,2013-04-04 12:05:00,
2013-04-04 05:10:00,54.0,52.0,29.79,WSW,254,3.0,4.0,93,0.00,,---,0.00,0.00,VWS V14.01,2013-04-04 12:10:00,
2013-04-04 05:16:00,54.1,52.1,29.79,WNW,290,4.0,9.0,93,0.00,,---,0.00,0.00,VWS V14.01,2013-04-04 12:16:00,
2013-04-04 05:20:00,54.1,52.1,29.79,West,267,2.0,9.0,93,0.00,,---,0.00,0.00,VWS V14.01,2013-04-04 12:20:00,
2013-04-04 05:21:00,54.1,52.1,29.79,SSW,208,0.0,4.0,93,0.00,,---,0.00,0.00,VWS V14.01,2013-04-04 12:21:00,
2013-04-04 05:26:00,54.0,52.0,29.78,WNW,296,4.0,5.0,93,0.00,,---,0.00,0.00,VWS V14.01,2013-04-04 12:26:00,
2013-04-04 05:30:00,54.0,52.0,29.78,NW,311,2.0,6.0,93,0.00,,---,0.00,0.00,VWS V14.01,2013-04-04 12:30:00,
2013-04-04 05:31:00,54.0,52.0,29.78,South,181,4.0,5.0,93,0.00,,---,0.00,0.00,VWS V14.01,2013-04-04 12:31:00,
2013-04-04 05:36:00,54.0,52.0,29.78,WNW,299,3.0,5.0,93,0.00,,---,0.00,0.00,VWS V14.01,2013-04-04 12:36:00,
2013-04-04 05:40:00,54.0,52.0,29.78,WNW,299,2.0,5.0,93,0.00,,---,0.00,0.00,VWS V14.01,2013-04-04 12:40:00,
2013-04-04 05:41:00,54.0,52.0,29.78,WNW,299,0.0,4.0,93,0.00,,---,0.00,0.00,VWS V14.01,2013-04-04 12:41:00,
2013-04-04 05:46:00,54.0,52.0,29.77,East,79,1.0,4.0,93,0.00,,---,0.00,0.00,VWS V14.01,2013-04-04 12:46:00,
2013-04-04 05:50:00,54.0,52.0,29.77,East,79,1.0,4.0,93,0.00,,---,0.00,0.00,VWS V14.01,2013-04-04 12:50:00,
2013-04-04 05:51:00,53.9,51.9,29.78,SSE,161,1.0,5.0,93,0.00,,---,0.00,0.00,VWS V14.01,2013-04-04 12:51:00,
2013-04-04 05:56:00,53.6,51.9,29.78,SSE,165,1.0,7.0,94,0.00,,---,0.00,0.00,VWS V14.01,2013-04-04 12:56:00,
2013-04-04 06:00:00,53.6,51.9,29.78,SSE,165,0.0,7.0,94,0.00,,---,0.00,0.00,VWS V14.01,2013-04-04 13:00:00,
2013-04-04 06:01:00,53.5,51.8,29.77,SSE,165,2.0,3.0,94,0.00,,---,0.00,0.00,VWS V14.01,2013-04-04 13:01:00,
2013-04-04 06:06:00,53.4,51.7,29.77,SSE,165,0.0,3.0,94,0.00,,---,0.00,0.00,VWS V14.01,2013-04-04 13:06:00,
2013-04-04 06:10:00,53.3,51.6,29.77,SSE,165,0.0,3.0,94,0.00,,---,0.00,0.00,VWS V14.01,2013-04-04 13:10:00,
2013-04-04 06:11:00,53.3,51.6,29.77,SSE,165,2.0,3.0,94,0.00,,---,0.00,0.00,VWS V14.01,2013-04-04 13:11:00,
2013-04-04 06:16:00,53.2,51.8,29.77,SSE,165,0.0,3.0,95,0.00,,---,0.00,0.00,VWS V14.01,2013-04-04 13:16:00,
2013-04-04 06:20:00,53.2,51.8,29.77,SSE,165,0.0,3.0,95,0.00,,---,0.00,0.00,VWS V14.01,2013-04-04 13:20:00,
2013-04-04 06:21:00,53.2,51.8,29.77,SSE,165,0.0,1.0,95,0.01,,---,0.01,0.00,VWS V14.01,2013-04-04 13:21:00,
2013-04-04 06:26:00,53.1,51.7,29.77,SSE,165,0.0,2.0,95,0.01,,---,0.01,0.00,VWS V14.01,2013-04-04 13:26:00,
2013-04-04 06:30:00,53.1,51.7,29.77,SSE,165,0.0,2.0,95,0.01,,---,0.01,0.00,VWS V14.01,2013-04-04 13:30:00,
2013-04-04 06:31:00,53.1,51.7,29.77,SSE,165,0.0,2.0,95,0.01,,---,0.01,0.00,VWS V14.01,2013-04-04 13:31:00,
2013-04-04 06:36:00,53.0,51.6,29.77,SSE,165,3.0,3.0,95,0.01,,---,0.01,0.00,VWS V14.01,2013-04-04 13:36:00,
2013-04-04 06:40:00,53.0,51.6,29.77,SSE,165,0.0,3.0,95,0.01,,---,0.01,0.00,VWS V14.01,2013-04-04 13:40:00,
2013-04-04 06:41:00,53.0,51.6,29.76,SSE,165,2.0,3.0,95,0.01,,---,0.01,0.00,VWS V14.01,2013-04-04 13:41:00,
2013-04-04 06:46:00,52.9,51.5,29.77,SSE,165,0.0,3.0,95,0.01,,---,0.01,0.00,VWS V14.01,2013-04-04 13:46:00,
2013-04-04 06:50:00,52.9,51.5,29.76,SSE,165,0.0,3.0,95,0.01,,---,0.01,0.00,VWS V14.01,2013-04-04 13:50:00,
2013-04-04 06:51:00,52.9,51.8,29.75,SSE,165,0.0,3.0,96,0.01,,---,0.01,0.00,VWS V14.01,2013-04-04 13:51:00,
2013-04-04 06:56:00,52.8,51.7,29.76,SSE,165,0.0,3.0,96,0.01,,---,0.01,0.00,VWS V14.01,2013-04-04 13:56:00,
2013-04-04 07:00:00,52.8,51.7,29.76,SSE,165,0.0,3.0,96,0.01,,---,0.01,0.00,VWS V14.01,2013-04-04 14:00:00,
2013-04-04 07:01:00,52.8,51.7,29.75,SSE,165,0.0,0.0,96,0.01,,---,0.01,0.00,VWS V14.01,2013-04-04 14:01:00,
2013-04-04 07:06:00,52.8,51.7,29.75,SSE,165,0.0,3.0,96,0.01,,---,0.01,7.00,VWS V14.01,2013-04-04 14:06:00,
2013-04-04 07:10:00,52.8,51.7,29.75,SSE,165,3.0,3.0,96,0.01,,---,0.01,7.00,VWS V14.01,2013-04-04 14:10:00,
2013-04-04 07:11:00,52.7,51.6,29.75,SSE,165,0.0,4.0,96,0.01,,---,0.01,9.00,VWS V14.01,2013-04-04 14:11:00,
2013-04-04 07:16:00,52.7,51.6,29.75,SSE,165,0.0,4.0,96,0.01,,---,0.01,14.00,VWS V14.01,2013-04-04 14:16:00,
2013-04-04 07:20:00,52.7,51.6,29.75,SSE,165,0.0,4.0,96,0.01,,---,0.01,16.00,VWS V14.01,2013-04-04 14:20:00,
2013-04-04 07:21:00,52.7,51.6,29.75,SSE,165,0.0,0.0,96,0.01,,---,0.01,21.00,VWS V14.01,2013-04-04 14:21:00,
2013-04-04 07:26:00,52.7,51.6,29.75,SSE,165,0.0,0.0,96,0.01,,---,0.01,19.00,VWS V14.01,2013-04-04 14:26:00,
2013-04-04 07:30:00,52.7,51.6,29.75,SSE,165,0.0,0.0,96,0.01,,---,0.01,19.00,VWS V14.01,2013-04-04 14:30:00,
2013-04-04 07:31:00,52.7,51.6,29.75,SSE,165,1.0,1.0,96,0.00,,---,0.01,19.00,VWS V14.01,2013-04-04 14:31:00,
2013-04-04 07:36:00,52.7,51.6,29.75,SSE,165,0.0,1.0,96,0.00,,---,0.01,25.00,VWS V14.01,2013-04-04 14:36:00,
2013-04-04 07:40:00,52.7,51.6,29.75,SSE,165,0.0,1.0,96,0.00,,---,0.01,25.00,VWS V14.01,2013-04-04 14:40:00,
2013-04-04 07:41:00,52.7,51.6,29.75,SSE,165,0.0,0.0,96,0.00,,---,0.01,30.00,VWS V14.01,2013-04-04 14:41:00,
2013-04-04 07:46:00,52.8,52.0,29.74,SSE,165,1.0,2.0,97,0.00,,---,0.01,35.00,VWS V14.01,2013-04-04 14:46:00,
2013-04-04 07:50:00,52.8,52.0,29.74,SSE,165,2.0,2.0,97,0.00,,---,0.01,35.00,VWS V14.01,2013-04-04 14:50:00,
2013-04-04 07:51:00,52.8,52.0,29.74,SSE,165,1.0,3.0,97,0.00,,---,0.01,39.00,VWS V14.01,2013-04-04 14:51:00,
2013-04-04 07:56:00,52.9,52.1,29.74,SSE,165,0.0,3.0,97,0.00,,---,0.01,35.00,VWS V14.01,2013-04-04 14:56:00,
2013-04-04 08:00:00,52.9,52.1,29.74,SSE,165,0.0,3.0,97,0.00,,---,0.01,35.00,VWS V14.01,2013-04-04 15:00:00,
2013-04-04 08:01:00,52.9,52.1,29.74,SSE,165,0.0,0.0,97,0.00,,---,0.01,40.00,VWS V14.01,2013-04-04 15:01:00,
2013-04-04 08:06:00,53.0,52.2,29.75,SSE,166,0.0,0.0,97,0.00,,---,0.01,47.00,VWS V14.01,2013-04-04 15:06:00,
2013-04-04 08:10:00,53.0,52.2,29.75,SSE,165,0.0,0.0,97,0.00,,---,0.01,49.00,VWS V14.01,2013-04-04 15:10:00,
2013-04-04 08:11:00,53.1,52.3,29.74,SSE,165,0.0,0.0,97,0.00,,---,0.01,62.00,VWS V14.01,2013-04-04 15:11:00,
2013-04-04 08:16:00,53.3,52.5,29.73,SSE,165,2.0,3.0,97,0.00,,---,0.01,88.00,VWS V14.01,2013-04-04 15:16:00,
2013-04-04 08:20:00,53.3,52.5,29.73,SSE,165,2.0,3.0,97,0.00,,---,0.01,93.00,VWS V14.01,2013-04-04 15:20:00,
2013-04-04 08:22:00,53.4,52.6,29.73,SSE,165,2.0,3.0,97,0.00,,---,0.01,95.00,VWS V14.01,2013-04-04 15:22:00,
2013-04-04 08:27:00,53.5,52.7,29.74,SSE,166,1.0,4.0,97,0.01,,---,0.02,84.00,VWS V14.01,2013-04-04 15:27:00,
2013-04-04 08:30:00,53.6,52.8,29.74,SSE,166,2.0,4.0,97,0.01,,---,0.02,84.00,VWS V14.01,2013-04-04 15:30:00,
2013-04-04 08:32:00,53.6,52.8,29.73,SSE,166,0.0,2.0,97,0.01,,---,0.02,79.00,VWS V14.01,2013-04-04 15:32:00,
2013-04-04 08:37:00,53.8,53.0,29.74,SSE,166,1.0,2.0,97,0.01,,---,0.02,67.00,VWS V14.01,2013-04-04 15:37:00,
2013-04-04 08:40:00,53.8,53.0,29.74,SSE,166,1.0,2.0,97,0.01,,---,0.02,67.00,VWS V14.01,2013-04-04 15:40:00,
2013-04-04 08:42:00,53.9,53.1,29.74,SSE,166,1.0,3.0,97,0.01,,---,0.02,65.00,VWS V14.01,2013-04-04 15:42:00,
2013-04-04 08:47:00,54.0,53.2,29.74,SSE,166,0.0,3.0,97,0.01,,---,0.02,62.00,VWS V14.01,2013-04-04 15:47:00,
2013-04-04 08:50:00,54.0,53.2,29.74,SSE,166,0.0,3.0,97,0.01,,---,0.02,62.00,VWS V14.01,2013-04-04 15:50:00,
2013-04-04 08:52:00,54.2,53.4,29.74,SSE,166,0.0,2.0,97,0.01,,---,0.02,58.00,VWS V14.01,2013-04-04 15:52:00,
2013-04-04 08:57:00,54.3,53.5,29.74,SSE,166,0.0,2.0,97,0.01,,---,0.02,65.00,VWS V14.01,2013-04-04 15:57:00,
2013-04-04 09:00:00,54.3,53.5,29.74,SSE,166,0.0,2.0,97,0.01,,---,0.02,65.00,VWS V14.01,2013-04-04 16:00:00,
2013-04-04 09:02:00,54.4,53.3,29.74,SSE,166,0.0,0.0,96,0.01,,---,0.02,74.00,VWS V14.01,2013-04-04 16:02:00,
2013-04-04 09:07:00,54.5,53.7,29.74,SSE,166,0.0,0.0,97,0.01,,---,0.02,79.00,VWS V14.01,2013-04-04 16:07:00,
2013-04-04 09:10:00,54.5,53.7,29.74,SSE,166,0.0,0.0,97,0.01,,---,0.02,79.00,VWS V14.01,2013-04-04 16:10:00,
2013-04-04 09:12:00,54.7,53.6,29.74,SSE,166,2.0,2.0,96,0.01,,---,0.02,95.00,VWS V14.01,2013-04-04 16:12:00,
2013-04-04 09:17:00,54.8,53.7,29.74,SSE,166,1.0,2.0,96,0.01,,---,0.02,104.00,VWS V14.01,2013-04-04 16:17:00,
2013-04-04 09:20:00,54.8,53.7,29.74,SSE,166,1.0,2.0,96,0.01,,---,0.02,104.00,VWS V14.01,2013-04-04 16:20:00,
2013-04-04 09:22:00,54.9,53.8,29.74,SSE,166,0.0,4.0,96,0.01,,---,0.02,88.00,VWS V14.01,2013-04-04 16:22:00,
2013-04-04 09:27:00,54.9,53.8,29.74,SSE,166,2.0,4.0,96,0.01,,---,0.02,102.00,VWS V14.01,2013-04-04 16:27:00,
2013-04-04 09:30:00,54.9,53.8,29.74,SSE,166,2.0,4.0,96,0.01,,---,0.02,102.00,VWS V14.01,2013-04-04 16:30:00,
2013-04-04 09:32:00,54.9,53.8,29.74,SSE,167,0.0,5.0,96,0.00,,---,0.02,120.00,VWS V14.01,2013-04-04 16:32:00,
2013-04-04 09:37:00,54.9,53.8,29.75,South,187,3.0,5.0,96,0.00,,---,0.02,107.00,VWS V14.01,2013-04-04 16:37:00,
2013-04-04 09:40:00,54.9,53.8,29.75,South,187,3.0,5.0,96,0.00,,---,0.02,107.00,VWS V14.01,2013-04-04 16:40:00,
2013-04-04 09:42:00,54.9,53.8,29.74,SW,232,2.0,5.0,96,0.00,,---,0.02,91.00,VWS V14.01,2013-04-04 16:42:00,
2013-04-04 09:47:00,54.9,53.8,29.74,SW,232,0.0,5.0,96,0.01,,---,0.03,86.00,VWS V14.01,2013-04-04 16:47:00,
2013-04-04 09:50:00,54.9,53.8,29.74,SW,232,0.0,5.0,96,0.01,,---,0.03,86.00,VWS V14.01,2013-04-04 16:50:00,
2013-04-04 09:52:00,54.9,53.8,29.74,SW,228,0.0,3.0,96,0.01,,---,0.03,58.00,VWS V14.01,2013-04-04 16:52:00,
2013-04-04 09:57:00,54.9,53.8,29.75,SSE,157,2.0,5.0,96,0.01,,---,0.03,60.00,VWS V14.01,2013-04-04 16:57:00,
2013-04-04 10:00:00,54.9,53.8,29.75,SSE,157,2.0,5.0,96,0.01,,---,0.03,60.00,VWS V14.01,2013-04-04 17:00:00,
2013-04-04 10:02:00,54.9,53.8,29.75,SSE,157,0.0,3.0,96,0.02,,---,0.04,65.00,VWS V14.01,2013-04-04 17:02:00,
2013-04-04 10:07:00,54.9,53.8,29.75,South,190,0.0,4.0,96,0.02,,---,0.04,67.00,VWS V14.01,2013-04-04 17:07:00,
2013-04-04 10:10:00,54.9,53.8,29.75,South,190,0.0,4.0,96,0.02,,---,0.04,67.00,VWS V14.01,2013-04-04 17:10:00,
2013-04-04 10:12:00,54.9,53.8,29.75,SSW,192,2.0,4.0,96,0.03,,---,0.05,76.00,VWS V14.01,2013-04-04 17:12:00,
2013-04-04 10:17:00,54.8,53.7,29.75,SSW,192,2.0,2.0,96,0.03,,---,0.05,70.00,VWS V14.01,2013-04-04 17:17:00,
2013-04-04 10:20:00,54.8,53.7,29.75,SSW,192,2.0,5.0,96,0.03,,---,0.05,70.00,VWS V14.01,2013-04-04 17:20:00,
2013-04-04 10:22:00,54.9,53.8,29.76,SSW,192,2.0,3.0,96,0.03,,---,0.05,74.00,VWS V14.01,2013-04-04 17:22:00,
2013-04-04 10:27:00,55.0,54.2,29.76,SSW,192,3.0,4.0,97,0.04,,---,0.06,77.00,VWS V14.01,2013-04-04 17:27:00,
2013-04-04 10:30:00,55.0,54.2,29.76,SSW,192,3.0,4.0,97,0.04,,---,0.06,77.00,VWS V14.01,2013-04-04 17:30:00,
2013-04-04 10:32:00,55.0,54.2,29.76,South,191,0.0,6.0,97,0.04,,---,0.06,100.00,VWS V14.01,2013-04-04 17:32:00,
2013-04-04 10:37:00,55.1,54.3,29.75,South,191,0.0,1.0,97,0.05,,---,0.07,118.00,VWS V14.01,2013-04-04 17:37:00,
2013-04-04 10:40:00,55.1,54.3,29.75,South,191,0.0,6.0,97,0.05,,---,0.07,118.00,VWS V14.01,2013-04-04 17:40:00,
2013-04-04 10:42:00,55.1,54.3,29.75,South,190,2.0,7.0,97,0.05,,---,0.07,109.00,VWS V14.01,2013-04-04 17:42:00,
2013-04-04 10:47:00,55.2,54.4,29.75,South,190,2.0,2.0,97,0.04,,---,0.07,123.00,VWS V14.01,2013-04-04 17:47:00,
2013-04-04 10:50:00,55.2,54.4,29.75,South,190,0.0,7.0,97,0.05,,---,0.07,134.00,VWS V14.01,2013-04-04 17:50:00,
2013-04-04 10:52:00,55.3,54.5,29.74,South,190,1.0,2.0,97,0.04,,---,0.07,120.00,VWS V14.01,2013-04-04 17:52:00,
2013-04-04 10:57:00,55.3,54.5,29.74,South,190,0.0,1.0,97,0.04,,---,0.07,100.00,VWS V14.01,2013-04-04 17:57:00,
2013-04-04 11:00:00,55.3,54.5,29.74,South,190,1.0,3.0,97,0.04,,---,0.07,102.00,VWS V14.01,2013-04-04 18:00:00,
2013-04-04 11:02:00,55.3,54.5,29.74,South,190,2.0,2.0,97,0.04,,---,0.07,113.00,VWS V14.01,2013-04-04 18:02:00,
2013-04-04 11:07:00,55.4,54.6,29.74,South,190,0.0,0.0,97,0.03,,---,0.07,100.00,VWS V14.01,2013-04-04 18:07:00,
2013-04-04 11:10:00,55.4,54.6,29.74,South,190,0.0,3.0,97,0.04,,---,0.07,100.00,VWS V14.01,2013-04-04 18:10:00,
2013-04-04 11:12:00,55.5,54.7,29.74,South,190,0.0,1.0,97,0.04,,---,0.08,120.00,VWS V14.01,2013-04-04 18:12:00,
2013-04-04 11:17:00,55.5,54.7,29.74,South,190,0.0,0.0,97,0.03,,---,0.08,118.00,VWS V14.01,2013-04-04 18:17:00,
2013-04-04 11:20:00,55.5,54.7,29.74,South,190,0.0,2.0,97,0.04,,---,0.08,118.00,VWS V14.01,2013-04-04 18:20:00,
2013-04-04 11:22:00,55.6,54.8,29.74,South,190,0.0,1.0,97,0.03,,---,0.08,125.00,VWS V14.01,2013-04-04 18:22:00,
2013-04-04 11:27:00,55.7,54.9,29.74,South,190,0.0,2.0,97,0.02,,---,0.08,118.00,VWS V14.01,2013-04-04 18:27:00,
2013-04-04 11:30:00,55.7,54.9,29.74,South,190,2.0,3.0,97,0.03,,---,0.08,114.00,VWS V14.01,2013-04-04 18:30:00,
2013-04-04 11:32:00,55.8,55.0,29.73,South,190,0.0,2.0,97,0.03,,---,0.09,134.00,VWS V14.01,2013-04-04 18:32:00,
2013-04-04 11:37:00,55.8,55.0,29.73,South,190,0.0,0.0,97,0.03,,---,0.10,163.00,VWS V14.01,2013-04-04 18:37:00,
2013-04-04 11:40:00,55.8,55.0,29.73,South,190,0.0,3.0,97,0.04,,---,0.10,158.00,VWS V14.01,2013-04-04 18:40:00,
2013-04-04 11:42:00,55.9,55.1,29.73,South,190,0.0,2.0,97,0.03,,---,0.10,274.00,VWS V14.01,2013-04-04 18:42:00,
2013-04-04 11:47:00,56.1,55.3,29.73,South,190,0.0,0.0,97,0.03,,---,0.10,220.00,VWS V14.01,2013-04-04 18:47:00,
2013-04-04 11:50:00,56.1,55.3,29.73,South,190,0.0,2.0,97,0.03,,---,0.10,220.00,VWS V14.01,2013-04-04 18:50:00,
2013-04-04 11:52:00,56.2,55.4,29.73,South,190,0.0,2.0,97,0.03,,---,0.10,216.00,VWS V14.01,2013-04-04 18:52:00,
2013-04-04 11:57:00,56.3,55.2,29.73,South,190,0.0,0.0,96,0.03,,---,0.10,193.00,VWS V14.01,2013-04-04 18:57:00,
2013-04-04 12:00:00,56.3,55.2,29.73,South,190,0.0,2.0,96,0.03,,---,0.10,193.00,VWS V14.01,2013-04-04 19:00:00,
2013-04-04 12:02:00,56.5,55.7,29.73,South,190,0.0,1.0,97,0.03,,---,0.10,248.00,VWS V14.01,2013-04-04 19:02:00,
2013-04-04 12:07:00,56.7,55.9,29.73,South,190,0.0,0.0,97,0.03,,---,0.10,195.00,VWS V14.01,2013-04-04 19:07:00,
2013-04-04 12:10:00,56.7,55.9,29.73,South,190,0.0,1.0,97,0.03,,---,0.10,190.00,VWS V14.01,2013-04-04 19:10:00,
2013-04-04 12:12:00,56.8,55.7,29.73,South,190,0.0,3.0,96,0.03,,---,0.10,167.00,VWS V14.01,2013-04-04 19:12:00,
2013-04-04 12:17:00,56.9,55.8,29.73,South,190,2.0,2.0,96,0.02,,---,0.10,207.00,VWS V14.01,2013-04-04 19:17:00,
2013-04-04 12:20:00,56.9,55.8,29.73,South,190,0.0,3.0,96,0.03,,---,0.10,207.00,VWS V14.01,2013-04-04 19:20:00,
2013-04-04 12:22:00,57.1,56.0,29.73,South,190,2.0,3.0,96,0.03,,---,0.11,183.00,VWS V14.01,2013-04-04 19:22:00,
2013-04-04 12:27:00,57.2,56.1,29.73,SSW,201,2.0,4.0,96,0.03,,---,0.11,183.00,VWS V14.01,2013-04-04 19:27:00,
2013-04-04 12:30:00,57.2,56.1,29.73,SSW,205,3.0,4.0,96,0.03,,---,0.11,199.00,VWS V14.01,2013-04-04 19:30:00,
2013-04-04 12:32:00,57.3,56.2,29.73,SSW,200,2.0,5.0,96,0.04,,---,0.12,139.00,VWS V14.01,2013-04-04 19:32:00,
2013-04-04 12:37:00,57.4,56.3,29.72,SSW,200,0.0,1.0,96,0.02,,---,0.12,141.00,VWS V14.01,2013-04-04 19:37:00,
2013-04-04 12:40:00,57.4,56.3,29.72,SSW,200,0.0,5.0,96,0.04,,---,0.12,144.00,VWS V14.01,2013-04-04 19:40:00,
2013-04-04 12:42:00,57.4,56.3,29.71,SSW,200,1.0,1.0,96,0.02,,---,0.12,114.00,VWS V14.01,2013-04-04 19:42:00,
2013-04-04 12:48:00,57.4,56.3,29.71,SSW,200,0.0,0.0,96,0.02,,---,0.12,153.00,VWS V14.01,2013-04-04 19:48:00,
2013-04-04 12:50:00,57.5,56.4,29.72,SSW,200,0.0,3.0,96,0.02,,---,0.12,153.00,VWS V14.01,2013-04-04 19:50:00,
2013-04-04 12:53:00,57.6,56.5,29.71,SSW,200,2.0,3.0,96,0.02,,---,0.12,251.00,VWS V14.01,2013-04-04 19:53:00,
2013-04-04 12:58:00,57.8,56.7,29.71,SSW,200,3.0,4.0,96,0.02,,---,0.12,262.00,VWS V14.01,2013-04-04 19:58:00,
2013-04-04 13:00:00,57.8,56.7,29.71,SSW,200,4.0,4.0,96,0.02,,---,0.12,262.00,VWS V14.01,2013-04-04 20:00:00,
2013-04-04 13:03:00,58.1,57.0,29.71,SSW,194,4.0,5.0,96,0.02,,---,0.12,244.00,VWS V14.01,2013-04-04 20:03:00,
2013-04-04 13:08:00,58.1,57.0,29.71,SSW,194,4.0,4.0,96,0.02,,---,0.12,237.00,VWS V14.01,2013-04-04 20:08:00,
2013-04-04 13:10:00,58.2,57.1,29.71,SSW,193,4.0,5.0,96,0.02,,---,0.12,234.00,VWS V14.01,2013-04-04 20:10:00,
2013-04-04 13:12:00,58.3,57.2,29.71,SSW,199,0.0,5.0,96,0.02,,---,0.12,95.00,VWS V14.01,2013-04-04 20:12:00,
2013-04-04 13:17:00,58.4,57.0,29.72,South,170,3.0,5.0,95,0.02,,---,0.12,186.00,VWS V14.01,2013-04-04 20:17:00,
2013-04-04 13:20:00,58.4,57.3,29.72,SSW,194,2.0,5.0,96,0.02,,---,0.12,193.00,VWS V14.01,2013-04-04 20:20:00,
2013-04-04 13:22:00,58.4,57.0,29.72,South,182,4.0,7.0,95,0.02,,---,0.12,171.00,VWS V14.01,2013-04-04 20:22:00,
2013-04-04 13:27:00,58.5,57.1,29.72,South,175,5.0,7.0,95,0.01,,---,0.12,158.00,VWS V14.01,2013-04-04 20:27:00,
2013-04-04 13:30:00,58.5,57.1,29.72,South,173,5.0,7.0,95,0.02,,---,0.12,158.00,VWS V14.01,2013-04-04 20:30:00,
2013-04-04 13:32:00,58.5,57.1,29.72,SSE,165,4.0,9.0,95,0.01,,---,0.12,246.00,VWS V14.01,2013-04-04 20:32:00,
2013-04-04 13:37:00,58.8,57.7,29.73,South,178,3.0,5.0,96,0.00,,---,0.12,153.00,VWS V14.01,2013-04-04 20:37:00,
2013-04-04 13:40:00,58.7,57.6,29.72,SSW,206,4.0,9.0,96,0.01,,---,0.12,223.00,VWS V14.01,2013-04-04 20:40:00,
2013-04-04 13:42:00,58.8,57.4,29.73,SSW,205,5.0,13.0,95,0.01,,---,0.13,158.00,VWS V14.01,2013-04-04 20:42:00,
2013-04-04 13:47:00,58.7,57.3,29.73,SSE,165,5.0,5.0,95,0.01,,---,0.13,225.00,VWS V14.01,2013-04-04 20:47:00,
2013-04-04 13:50:00,58.7,57.3,29.73,SSE,161,4.0,13.0,95,0.01,,---,0.13,239.00,VWS V14.01,2013-04-04 20:50:00,
2013-04-04 13:52:00,58.7,57.3,29.74,South,170,9.0,13.0,95,0.02,,---,0.14,120.00,VWS V14.01,2013-04-04 20:52:00,
2013-04-04 13:57:00,58.5,57.1,29.75,SW,229,5.0,7.0,95,0.05,,---,0.17,62.00,VWS V14.01,2013-04-04 20:57:00,
2013-04-04 14:00:00,58.5,57.1,29.74,South,185,7.0,13.0,95,0.04,,---,0.16,67.00,VWS V14.01,2013-04-04 21:00:00,
2013-04-04 14:02:00,58.2,56.5,29.75,SSW,192,15.0,18.0,94,0.07,,---,0.19,272.00,VWS V14.01,2013-04-04 21:02:00,
2013-04-04 14:07:00,58.4,56.7,29.75,SW,226,17.0,20.0,94,0.07,,---,0.19,290.00,VWS V14.01,2013-04-04 21:07:00,
2013-04-04 14:10:00,58.4,56.7,29.75,SSW,202,2.0,19.0,94,0.07,,---,0.19,290.00,VWS V14.01,2013-04-04 21:10:00,
2013-04-04 14:12:00,59.0,57.6,29.75,South,191,10.0,20.0,95,0.07,,---,0.19,385.00,VWS V14.01,2013-04-04 21:12:00,
2013-04-04 14:17:00,59.3,57.3,29.76,SSW,211,12.0,12.0,93,0.07,,---,0.19,345.00,VWS V14.01,2013-04-04 21:17:00,
2013-04-04 14:20:00,59.3,57.3,29.75,South,174,8.0,22.0,93,0.07,,---,0.19,345.00,VWS V14.01,2013-04-04 21:20:00,
2013-04-04 14:22:00,59.4,57.4,29.76,WSW,255,4.0,16.0,93,0.07,,---,0.19,366.00,VWS V14.01,2013-04-04 21:22:00,
2013-04-04 14:27:00,59.6,57.3,29.76,South,188,4.0,7.0,92,0.08,,---,0.20,207.00,VWS V14.01,2013-04-04 21:27:00,
2013-04-04 14:30:00,59.6,57.3,29.76,SSE,153,5.0,16.0,92,0.08,,---,0.20,202.00,VWS V14.01,2013-04-04 21:30:00,
2013-04-04 14:32:00,59.3,56.1,29.77,SSW,208,15.0,16.0,89,0.08,,---,0.20,183.00,VWS V14.01,2013-04-04 21:32:00,
2013-04-04 14:37:00,59.3,55.4,29.77,SSW,208,5.0,7.0,87,0.08,,---,0.20,167.00,VWS V14.01,2013-04-04 21:37:00,
2013-04-04 14:40:00,59.3,55.4,29.77,SSW,212,4.0,25.0,87,0.08,,---,0.20,167.00,VWS V14.01,2013-04-04 21:40:00,
2013-04-04 14:42:00,59.3,55.1,29.78,SSW,203,7.0,20.0,86,0.08,,---,0.20,144.00,VWS V14.01,2013-04-04 21:42:00,
2013-04-04 14:48:00,58.9,54.7,29.78,SSE,151,5.0,10.0,86,0.07,,---,0.20,179.00,VWS V14.01,2013-04-04 21:48:00,
2013-04-04 14:50:00,58.9,54.7,29.78,South,179,10.0,21.0,86,0.08,,---,0.20,163.00,VWS V14.01,2013-04-04 21:50:00,
2013-04-04 14:53:00,58.9,54.4,29.79,SSW,208,12.0,21.0,85,0.07,,---,0.20,178.00,VWS V14.01,2013-04-04 21:53:00,
2013-04-04 14:58:00,58.9,54.4,29.79,South,174,10.0,10.0,85,0.04,,---,0.20,137.00,VWS V14.01,2013-04-04 21:58:00,
2013-04-04 15:00:00,58.9,54.4,29.79,SW,217,6.0,21.0,85,0.07,,---,0.20,148.00,VWS V14.01,2013-04-04 22:00:00,
2013-04-04 15:03:00,58.9,54.4,29.79,South,182,13.0,17.0,85,0.04,,---,0.20,132.00,VWS V14.01,2013-04-04 22:03:00,
2013-04-04 15:07:00,58.8,54.0,29.80,SSW,195,9.0,20.0,84,0.01,,---,0.20,171.00,VWS V14.01,2013-04-04 22:07:00,
2013-04-04 15:10:00,58.7,54.2,29.80,SSW,200,11.0,17.0,85,0.04,,---,0.20,186.00,VWS V14.01,2013-04-04 22:10:00,
2013-04-04 15:12:00,58.8,54.3,29.80,South,184,4.0,20.0,85,0.01,,---,0.20,176.00,VWS V14.01,2013-04-04 22:12:00,
2013-04-04 15:17:00,58.9,54.1,29.80,South,185,6.0,11.0,84,0.01,,---,0.20,202.00,VWS V14.01,2013-04-04 22:17:00,
2013-04-04 15:20:00,58.9,54.1,29.80,South,179,7.0,20.0,84,0.01,,---,0.20,193.00,VWS V14.01,2013-04-04 22:20:00,
2013-04-04 15:22:00,59.1,54.6,29.80,SW,235,5.0,14.0,85,0.01,,---,0.20,237.00,VWS V14.01,2013-04-04 22:22:00,
2013-04-04 15:27:00,59.3,54.5,29.80,SSE,163,6.0,9.0,84,0.00,,---,0.20,162.00,VWS V14.01,2013-04-04 22:27:00,
2013-04-04 15:30:00,59.3,54.5,29.80,SE,143,3.0,14.0,84,0.01,,---,0.20,160.00,VWS V14.01,2013-04-04 22:30:00,
2013-04-04 15:32:00,59.3,55.1,29.80,SSW,193,11.0,12.0,86,0.00,,---,0.20,248.00,VWS V14.01,2013-04-04 22:32:00,
2013-04-04 15:37:00,59.3,54.2,29.80,SSE,166,5.0,20.0,83,0.00,,---,0.20,227.00,VWS V14.01,2013-04-04 22:37:00,
2013-04-04 15:40:00,59.3,54.5,29.80,South,189,20.0,20.0,84,0.00,,---,0.20,243.00,VWS V14.01,2013-04-04 22:40:00,
2013-04-04 15:42:00,59.3,54.5,29.80,SSW,198,7.0,20.0,84,0.00,,---,0.20,250.00,VWS V14.01,2013-04-04 22:42:00,
2013-04-04 15:47:00,59.6,55.1,29.80,SSW,204,4.0,6.0,85,0.00,,---,0.20,285.00,VWS V14.01,2013-04-04 22:47:00,
2013-04-04 15:50:00,59.6,55.1,29.80,South,182,0.0,20.0,85,0.00,,---,0.20,276.00,VWS V14.01,2013-04-04 22:50:00,
2013-04-04 15:52:00,59.9,54.4,29.80,SW,223,8.0,16.0,82,0.00,,---,0.20,218.00,VWS V14.01,2013-04-04 22:52:00,
2013-04-04 15:57:00,60.1,54.6,29.80,SSE,158,2.0,10.0,82,0.00,,---,0.20,193.00,VWS V14.01,2013-04-04 22:57:00,
2013-04-04 16:00:00,60.1,54.6,29.80,SW,223,10.0,18.0,82,0.00,,---,0.20,223.00,VWS V14.01,2013-04-04 23:00:00,
2013-04-04 16:02:00,60.3,55.1,29.80,South,190,7.0,11.0,83,0.00,,---,0.20,283.00,VWS V14.01,2013-04-04 23:02:00,
2013-04-04 16:07:00,60.3,54.8,29.80,SSW,204,12.0,12.0,82,0.00,,---,0.20,251.00,VWS V14.01,2013-04-04 23:07:00,
2013-04-04 16:10:00,60.3,54.8,29.80,SSW,204,12.0,13.0,82,0.00,,---,0.20,251.00,VWS V14.01,2013-04-04 23:10:00,
2013-04-04 16:12:00,60.4,54.9,29.80,South,183,3.0,15.0,82,0.00,,---,0.20,204.00,VWS V14.01,2013-04-04 23:12:00,
2013-04-04 16:17:00,60.3,54.8,29.80,SSE,159,11.0,11.0,82,0.00,,---,0.20,125.00,VWS V14.01,2013-04-04 23:17:00,
2013-04-04 16:20:00,60.3,54.5,29.80,South,170,7.0,15.0,81,0.00,,---,0.20,125.00,VWS V14.01,2013-04-04 23:20:00,
2013-04-04 16:22:00,60.0,55.2,29.80,SSE,156,6.0,13.0,84,0.00,,---,0.20,229.00,VWS V14.01,2013-04-04 23:22:00,
2013-04-04 16:27:00,59.7,54.9,29.80,SSW,211,8.0,8.0,84,0.00,,---,0.20,91.00,VWS V14.01,2013-04-04 23:27:00,
2013-04-04 16:30:00,59.7,55.2,29.80,South,180,2.0,13.0,85,0.00,,---,0.20,111.00,VWS V14.01,2013-04-04 23:30:00,
2013-04-04 16:32:00,59.3,54.8,29.80,SSE,166,4.0,13.0,85,0.00,,---,0.20,144.00,VWS V14.01,2013-04-04 23:32:00,
2013-04-04 16:37:00,59.3,55.1,29.80,SSE,167,4.0,6.0,86,0.00,,---,0.20,125.00,VWS V14.01,2013-04-04 23:37:00,
2013-04-04 16:40:00,59.3,55.1,29.80,South,171,5.0,13.0,86,0.00,,---,0.20,158.00,VWS V14.01,2013-04-04 23:40:00,
2013-04-04 16:42:00,59.3,55.4,29.80,SSW,201,2.0,11.0,87,0.00,,---,0.20,113.00,VWS V14.01,2013-04-04 23:42:00,
2013-04-04 16:47:00,59.1,55.2,29.80,SW,236,9.0,12.0,87,0.00,,---,0.20,107.00,VWS V14.01,2013-04-04 23:47:00,
2013-04-04 16:50:00,59.1,54.9,29.80,SSW,197,6.0,13.0,86,0.00,,---,0.20,107.00,VWS V14.01,2013-04-04 23:50:00,
2013-04-04 16:52:00,58.9,54.7,29.80,South,170,6.0,15.0,86,0.00,,---,0.20,105.00,VWS V14.01,2013-04-04 23:52:00,
2013-04-04 16:57:00,58.9,54.7,29.80,South,188,10.0,10.0,86,0.00,,---,0.20,181.00,VWS V14.01,2013-04-04 23:57:00,
2013-04-04 17:00:00,58.9,54.7,29.80,South,190,5.0,15.0,86,0.00,,---,0.20,197.00,VWS V14.01,2013-04-05 00:00:00,
2013-04-04 17:02:00,58.8,55.0,29.80,SSW,192,6.0,19.0,87,0.00,,---,0.20,128.00,VWS V14.01,2013-04-05 00:02:00,
2013-04-04 17:07:00,58.8,55.0,29.81,South,185,9.0,20.0,87,0.00,,---,0.20,127.00,VWS V14.01,2013-04-05 00:07:00,
2013-04-04 17:10:00,58.8,54.9,29.80,South,187,20.0,20.0,87,0.00,,---,0.20,127.00,VWS V14.01,2013-04-05 00:10:00,
2013-04-04 17:12:00,58.9,55.0,29.81,SSW,207,4.0,20.0,87,0.00,,---,0.20,113.00,VWS V14.01,2013-04-05 00:12:00,
2013-04-04 17:18:00,59.1,55.2,29.81,SW,222,9.0,9.0,87,0.00,,---,0.20,172.00,VWS V14.01,2013-04-05 00:18:00,
2013-04-04 17:20:00,59.0,55.1,29.81,South,184,4.0,20.0,87,0.00,,---,0.20,171.00,VWS V14.01,2013-04-05 00:20:00,
2013-04-04 17:23:00,59.3,55.1,29.81,South,185,6.0,13.0,86,0.00,,---,0.20,118.00,VWS V14.01,2013-04-05 00:23:00,
2013-04-04 17:28:00,59.3,55.1,29.81,South,186,13.0,13.0,86,0.00,,---,0.20,105.00,VWS V14.01,2013-04-05 00:28:00,
2013-04-04 17:30:00,59.3,55.1,29.81,SSW,194,6.0,13.0,86,0.00,,---,0.20,105.00,VWS V14.01,2013-04-05 00:30:00,
2013-04-04 17:32:00,59.3,54.8,29.81,South,181,4.0,17.0,85,0.00,,---,0.20,181.00,VWS V14.01,2013-04-05 00:32:00,
2013-04-04 17:37:00,59.5,54.7,29.81,South,177,5.0,10.0,84,0.00,,---,0.20,83.00,VWS V14.01,2013-04-05 00:37:00,
2013-04-04 17:40:00,59.4,54.9,29.81,SSW,192,4.0,17.0,85,0.00,,---,0.20,100.00,VWS V14.01,2013-04-05 00:40:00,
2013-04-04 17:42:00,59.4,54.2,29.81,South,173,3.0,13.0,83,0.00,,---,0.20,65.00,VWS V14.01,2013-04-05 00:42:00,
2013-04-04 17:47:00,59.3,54.8,29.81,SSW,206,8.0,14.0,85,0.00,,---,0.20,105.00,VWS V14.01,2013-04-05 00:47:00,
2013-04-04 17:50:00,59.3,54.8,29.81,SW,233,9.0,16.0,85,0.00,,---,0.20,100.00,VWS V14.01,2013-04-05 00:50:00,
2013-04-04 17:52:00,59.0,53.8,29.81,SW,215,13.0,15.0,83,0.01,,---,0.21,149.00,VWS V14.01,2013-04-05 00:52:00,
2013-04-04 17:57:00,58.8,53.3,29.81,SSW,192,4.0,11.0,82,0.01,,---,0.21,158.00,VWS V14.01,2013-04-05 00:57:00,
2013-04-04 18:00:00,58.8,53.3,29.81,WSW,253,4.0,15.0,82,0.01,,---,0.21,158.00,VWS V14.01,2013-04-05 01:00:00,
2013-04-04 18:02:00,59.0,53.8,29.82,South,184,12.0,12.0,83,0.01,,---,0.21,318.00,VWS V14.01,2013-04-05 01:02:00,
2013-04-04 18:07:00,59.3,53.8,29.81,South,189,2.0,7.0,82,0.01,,---,0.21,274.00,VWS V14.01,2013-04-05 01:07:00,
2013-04-04 18:10:00,59.3,53.8,29.81,SSW,197,4.0,12.0,82,0.01,,---,0.21,267.00,VWS V14.01,2013-04-05 01:10:00,
2013-04-04 18:12:00,59.5,53.3,29.81,WSW,252,15.0,15.0,80,0.01,,---,0.21,183.00,VWS V14.01,2013-04-05 01:12:00,
2013-04-04 18:17:00,59.3,52.5,29.81,SW,215,9.0,11.0,78,0.01,,---,0.21,323.00,VWS V14.01,2013-04-05 01:17:00,
2013-04-04 18:20:00,59.3,52.5,29.81,SSW,208,7.0,17.0,78,0.01,,---,0.21,323.00,VWS V14.01,2013-04-05 01:20:00,
2013-04-04 18:22:00,59.3,52.1,29.81,SSE,159,4.0,22.0,77,0.01,,---,0.21,77.00,VWS V14.01,2013-04-05 01:22:00,
2013-04-04 18:27:00,59.1,51.5,29.81,SW,222,10.0,15.0,76,0.01,,---,0.21,49.00,VWS V14.01,2013-04-05 01:27:00,
2013-04-04 18:30:00,59.2,51.7,29.82,WSW,243,10.0,22.0,76,0.01,,---,0.21,51.00,VWS V14.01,2013-04-05 01:30:00,
2013-04-04 18:32:00,58.7,51.5,29.81,SW,232,3.0,16.0,77,0.01,,---,0.21,67.00,VWS V14.01,2013-04-05 01:32:00,
2013-04-04 18:37:00,58.5,51.7,29.81,SW,217,5.0,12.0,78,0.01,,---,0.21,47.00,VWS V14.01,2013-04-05 01:37:00,
2013-04-04 18:40:00,58.5,51.3,29.81,SW,226,4.0,16.0,77,0.01,,---,0.21,47.00,VWS V14.01,2013-04-05 01:40:00,
2013-04-04 18:42:00,58.2,51.4,29.81,SSW,195,6.0,14.0,78,0.01,,---,0.21,39.00,VWS V14.01,2013-04-05 01:42:00,
2013-04-04 18:47:00,58.0,51.5,29.82,WSW,238,3.0,3.0,79,0.01,,---,0.21,40.00,VWS V14.01,2013-04-05 01:47:00,
2013-04-04 18:50:00,58.0,51.5,29.81,WSW,238,2.0,14.0,79,0.01,,---,0.21,40.00,VWS V14.01,2013-04-05 01:50:00,
2013-04-04 18:53:00,57.9,51.4,29.82,WSW,245,6.0,13.0,79,0.01,,---,0.21,40.00,VWS V14.01,2013-04-05 01:53:00,
2013-04-04 18:58:00,57.9,51.4,29.82,SW,217,5.0,7.0,79,0.00,,---,0.21,39.00,VWS V14.01,2013-04-05 01:58:00,
2013-04-04 19:00:00,57.9,51.4,29.82,SW,234,5.0,13.0,79,0.01,,---,0.21,37.00,VWS V14.01,2013-04-05 02:00:00,
2013-04-04 19:03:00,57.9,51.8,29.82,WSW,245,6.0,13.0,80,0.00,,---,0.21,65.00,VWS V14.01,2013-04-05 02:03:00,
2013-04-04 19:08:00,58.0,51.5,29.82,WSW,244,9.0,9.0,79,0.00,,---,0.21,93.00,VWS V14.01,2013-04-05 02:08:00,
2013-04-04 19:10:00,58.0,51.2,29.82,SW,218,9.0,14.0,78,0.00,,---,0.21,91.00,VWS V14.01,2013-04-05 02:10:00,
2013-04-04 19:13:00,58.1,51.6,29.83,South,185,6.0,14.0,79,0.00,,---,0.21,97.00,VWS V14.01,2013-04-05 02:13:00,
2013-04-04 19:18:00,58.1,51.6,29.82,SSE,159,6.0,6.0,79,0.00,,---,0.21,42.00,VWS V14.01,2013-04-05 02:18:00,
2013-04-04 19:20:00,58.1,51.6,29.83,SW,223,5.0,14.0,79,0.00,,---,0.21,44.00,VWS V14.01,2013-04-05 02:20:00,
2013-04-04 19:23:00,57.9,51.4,29.82,SSW,196,2.0,9.0,79,0.00,,---,0.21,81.00,VWS V14.01,2013-04-05 02:23:00,
2013-04-04 19:28:00,57.7,51.6,29.82,SSW,192,3.0,10.0,80,0.00,,---,0.21,62.00,VWS V14.01,2013-04-05 02:28:00,
2013-04-04 19:30:00,57.7,51.2,29.82,SSW,194,2.0,10.0,79,0.00,,---,0.21,70.00,VWS V14.01,2013-04-05 02:30:00,
2013-04-04 19:32:00,57.6,51.5,29.82,SSE,160,7.0,10.0,80,0.00,,---,0.21,39.00,VWS V14.01,2013-04-05 02:32:00,
2013-04-04 19:37:00,57.4,51.3,29.83,SSW,192,7.0,11.0,80,0.00,,---,0.21,14.00,VWS V14.01,2013-04-05 02:37:00,
2013-04-04 19:40:00,57.4,51.3,29.83,SSW,195,10.0,10.0,80,0.00,,---,0.21,18.00,VWS V14.01,2013-04-05 02:40:00,
2013-04-04 19:42:00,57.1,51.0,29.83,SSE,165,3.0,11.0,80,0.00,,---,0.21,7.00,VWS V14.01,2013-04-05 02:42:00,
2013-04-04 19:47:00,56.9,51.1,29.83,SE,130,2.0,3.0,81,0.00,,---,0.21,0.00,VWS V14.01,2013-04-05 02:47:00,
2013-04-04 19:50:00,56.9,51.1,29.83,SSE,153,3.0,12.0,81,0.00,,---,0.21,0.00,VWS V14.01,2013-04-05 02:50:00,
2013-04-04 19:52:00,56.7,50.9,29.83,SE,139,6.0,14.0,81,0.00,,---,0.21,0.00,VWS V14.01,2013-04-05 02:52:00,
2013-04-04 19:57:00,56.4,50.7,29.84,SSE,155,3.0,5.0,81,0.00,,---,0.21,0.00,VWS V14.01,2013-04-05 02:57:00,
2013-04-04 20:00:00,56.5,50.8,29.84,South,184,4.0,14.0,81,0.00,,---,0.21,0.00,VWS V14.01,2013-04-05 03:00:00,
2013-04-04 20:02:00,56.3,51.2,29.84,South,190,6.0,12.0,83,0.00,,---,0.21,0.00,VWS V14.01,2013-04-05 03:02:00,
2013-04-04 20:07:00,56.1,51.3,29.84,SSE,167,5.0,9.0,84,0.00,,---,0.21,0.00,VWS V14.01,2013-04-05 03:07:00,
2013-04-04 20:10:00,56.1,51.3,29.84,South,170,5.0,12.0,84,0.00,,---,0.21,0.00,VWS V14.01,2013-04-05 03:10:00,
2013-04-04 20:12:00,55.9,51.8,29.84,South,173,1.0,11.0,86,0.00,,---,0.21,0.00,VWS V14.01,2013-04-05 03:12:00,
2013-04-04 20:17:00,55.7,51.9,29.84,SW,218,7.0,9.0,87,0.00,,---,0.21,0.00,VWS V14.01,2013-04-05 03:17:00,
2013-04-04 20:20:00,55.7,51.9,29.84,South,174,3.0,11.0,87,0.00,,---,0.21,0.00,VWS V14.01,2013-04-05 03:20:00,
2013-04-04 20:22:00,55.5,52.0,29.85,South,190,3.0,12.0,88,0.00,,---,0.21,0.00,VWS V14.01,2013-04-05 03:22:00,
2013-04-04 20:28:00,55.3,52.1,29.85,South,178,7.0,7.0,89,0.00,,---,0.21,0.00,VWS V14.01,2013-04-05 03:28:00,
2013-04-04 20:30:00,55.3,52.1,29.85,SSE,167,7.0,13.0,89,0.00,,---,0.21,0.00,VWS V14.01,2013-04-05 03:30:00,
2013-04-04 20:33:00,55.2,52.0,29.84,South,179,5.0,12.0,89,0.00,,---,0.21,0.00,VWS V14.01,2013-04-05 03:33:00,
2013-04-04 20:38:00,54.9,51.7,29.84,SSW,192,8.0,10.0,89,0.00,,---,0.21,0.00,VWS V14.01,2013-04-05 03:38:00,
2013-04-04 20:40:00,55.0,51.8,29.84,South,190,10.0,12.0,89,0.00,,---,0.21,0.00,VWS V14.01,2013-04-05 03:40:00,
2013-04-04 20:43:00,54.8,51.6,29.85,SSW,192,4.0,11.0,89,0.00,,---,0.21,0.00,VWS V14.01,2013-04-05 03:43:00,
2013-04-04 20:48:00,54.6,51.4,29.85,SE,132,7.0,7.0,89,0.00,,---,0.21,0.00,VWS V14.01,2013-04-05 03:48:00,
2013-04-04 20:50:00,54.7,51.5,29.85,SE,146,6.0,11.0,89,0.00,,---,0.21,0.00,VWS V14.01,2013-04-05 03:50:00,
2013-04-04 20:53:00,54.5,51.3,29.85,South,190,8.0,13.0,89,0.00,,---,0.21,0.00,VWS V14.01,2013-04-05 03:53:00,
2013-04-04 20:58:00,54.4,50.9,29.85,South,174,4.0,10.0,88,0.00,,---,0.21,0.00,VWS V14.01,2013-04-05 03:58:00,
2013-04-04 21:00:00,54.4,50.9,29.85,South,184,11.0,11.0,88,0.00,,---,0.21,0.00,VWS V14.01,2013-04-05 04:00:00,
2013-04-04 21:05:00,54.4,50.6,29.86,South,186,6.0,14.0,87,0.00,,---,0.21,0.00,VWS V14.01,2013-04-05 04:05:00,
2013-04-04 21:10:00,54.5,50.4,29.86,South,186,9.0,11.0,86,0.00,,---,0.21,0.00,VWS V14.01,2013-04-05 04:10:00,
2013-04-04 21:15:00,54.5,50.4,29.87,SSE,165,0.0,13.0,86,0.00,,---,0.21,0.00,VWS V14.01,2013-04-05 04:15:00,
2013-04-04 21:20:00,54.5,50.1,29.87,South,174,9.0,9.0,85,0.00,,---,0.21,0.00,VWS V14.01,2013-04-05 04:20:00,
2013-04-04 21:25:00,54.5,50.1,29.87,South,173,6.0,13.0,85,0.00,,---,0.21,0.00,VWS V14.01,2013-04-05 04:25:00,
2013-04-04 21:30:00,54.5,50.4,29.88,South,177,4.0,6.0,86,0.00,,---,0.21,0.00,VWS V14.01,2013-04-05 04:30:00,
2013-04-04 21:35:00,54.5,50.4,29.88,South,190,10.0,11.0,86,0.00,,---,0.21,0.00,VWS V14.01,2013-04-05 04:35:00,
2013-04-04 21:40:00,54.5,50.4,29.88,South,180,5.0,10.0,86,0.00,,---,0.21,0.00,VWS V14.01,2013-04-05 04:40:00,
2013-04-04 21:45:00,54.6,49.9,29.88,SSE,163,5.0,13.0,84,0.00,,---,0.21,0.00,VWS V14.01,2013-04-05 04:45:00,
2013-04-04 21:50:00,54.6,49.9,29.89,SSE,152,4.0,11.0,84,0.00,,---,0.21,0.00,VWS V14.01,2013-04-05 04:50:00,
2013-04-04 21:55:00,54.6,49.9,29.89,South,174,3.0,11.0,84,0.00,,---,0.21,0.00,VWS V14.01,2013-04-05 04:55:00,
2013-04-04 22:00:00,54.5,49.8,29.89,South,186,1.0,11.0,84,0.00,,---,0.21,0.00,VWS V14.01,2013-04-05 05:00:00,
2013-04-04 22:05:00,54.4,49.7,29.89,SSW,213,7.0,11.0,84,0.00,,---,0.21,0.00,VWS V14.01,2013-04-05 05:05:00,
2013-04-04 22:10:00,54.4,49.7,29.89,SSW,200,5.0,12.0,84,0.00,,---,0.21,0.00,VWS V14.01,2013-04-05 05:10:00,
2013-04-04 22:15:00,54.4,49.3,29.89,SSE,161,5.0,12.0,83,0.00,,---,0.21,0.00,VWS V14.01,2013-04-05 05:15:00,
2013-04-04 22:20:00,54.3,49.3,29.90,SSW,200,5.0,10.0,83,0.00,,---,0.21,0.00,VWS V14.01,2013-04-05 05:20:00,
2013-04-04 22:25:00,54.3,49.3,29.89,SW,215,7.0,11.0,83,0.00,,---,0.21,0.00,VWS V14.01,2013-04-05 05:25:00,
2013-04-04 22:30:00,54.2,49.2,29.90,SSE,157,4.0,14.0,83,0.00,,---,0.21,0.00,VWS V14.01,2013-04-05 05:30:00,
2013-04-04 22:35:00,54.2,49.2,29.90,SSW,194,10.0,14.0,83,0.00,,---,0.21,0.00,VWS V14.01,2013-04-05 05:35:00,
2013-04-04 22:40:00,54.1,49.1,29.89,SSW,195,4.0,13.0,83,0.00,,---,0.21,0.00,VWS V14.01,2013-04-05 05:40:00,
2013-04-04 22:45:00,54.1,49.4,29.89,SSE,161,2.0,15.0,84,0.00,,---,0.21,0.00,VWS V14.01,2013-04-05 05:45:00,
2013-04-04 22:50:00,54.0,49.3,29.89,South,189,11.0,14.0,84,0.00,,---,0.21,0.00,VWS V14.01,2013-04-05 05:50:00,
2013-04-04 22:55:00,54.0,49.3,29.90,South,173,11.0,14.0,84,0.00,,---,0.21,0.00,VWS V14.01,2013-04-05 05:55:00,
2013-04-04 23:00:00,53.9,48.9,29.89,SE,127,5.0,10.0,83,0.00,,---,0.21,0.00,VWS V14.01,2013-04-05 06:00:00,
2013-04-04 23:05:00,53.9,48.9,29.89,SE,142,5.0,15.0,83,0.00,,---,0.21,0.00,VWS V14.01,2013-04-05 06:05:00,
2013-04-04 23:10:00,53.8,48.8,29.90,SSW,199,8.0,13.0,83,0.00,,---,0.21,0.00,VWS V14.01,2013-04-05 06:10:00,
2013-04-04 23:15:00,53.7,48.7,29.89,South,190,6.0,17.0,83,0.00,,---,0.21,0.00,VWS V14.01,2013-04-05 06:15:00,
2013-04-04 23:20:00,53.7,48.7,29.89,South,182,6.0,12.0,83,0.00,,---,0.21,0.00,VWS V14.01,2013-04-05 06:20:00,
2013-04-04 23:25:00,53.6,48.6,29.89,SSW,208,13.0,15.0,83,0.00,,---,0.21,0.00,VWS V14.01,2013-04-05 06:25:00,
2013-04-04 23:30:00,53.5,48.8,29.90,South,171,11.0,13.0,84,0.00,,---,0.21,0.00,VWS V14.01,2013-04-05 06:30:00,
2013-04-04 23:35:00,53.4,48.7,29.90,South,181,7.0,16.0,84,0.00,,---,0.21,0.00,VWS V14.01,2013-04-05 06:35:00,
2013-04-04 23:40:00,53.4,48.4,29.90,South,170,4.0,18.0,83,0.00,,---,0.21,0.00,VWS V14.01,2013-04-05 06:40:00,
2013-04-04 23:45:00,53.4,48.7,29.90,South,182,16.0,18.0,84,0.00,,---,0.21,0.00,VWS V14.01,2013-04-05 06:45:00,
2013-04-04 23:50:00,53.1,48.7,29.90,South,169,6.0,13.0,85,0.00,,---,0.21,0.00,VWS V14.01,2013-04-05 06:50:00,
2013-04-04 23:55:00,52.8,49.0,29.90,SSW,192,8.0,13.0,87,0.00,,---,0.21,0.00,VWS V14.01,2013-04-05 06:55:00,